Lid_Strength_Index
6 6 5 4 4 4 5 5 5 4 4 4 5 5 4 5 4 4 4 4 5 5 4 5 5 6 6 6 5 4 4 4 5 3 3 5 6 5 5 5 4 5 5
6 6 5 4 4 5 5 5 4 5 4 4 4 4 4 4 4 4 5 4 4 5 5 5 5 4 5 6 6 6 5 4 4 5 4 6 6 5 5 6 6 5 5
6 6 6 5 5 6 6 5 5 5 4 4 4 4 4 4 4 4 5 5 5 5 5 5 5 4 5 4 5 5 6 5 4 5 6 5 6 5 5 4 5 6 5
6 6 6 5 5 5 6 6 5 5 5 4 4 4 4 4 3 3 5 6 6 6 6 6 5 4 4 3 4 5 5 5 5 6 6 6 6 6 6 7 6 5 6
6 6 6 5 4 5 6 6 5 5 5 5 5 4 4 4 4 3 5 5 6 6 6 6 4 4 3 3 5 5 6 5 6 6 7 6 7 6 8 7 6 7 7
6 6 6 5 5 6 6 6 6 6 5 5 5 5 6 5 5 4 4 5 4 5 6 6 5 4 6 4 3 3 4 6 6 7 7 8 8 7 7 7 6 6 7
7 6 6 5 6 6 6 6 6 6 5 5 5 5 5 5 5 5 4 5 5 4 5 5 5 5 5 6 6 5 5 4 4 6 7 7 7 7 6 7 7 7 8
7 7 6 5 6 6 6 6 7 6 6 5 5 5 5 5 6 6 5 5 5 4 4 4 5 5 4 5 6 5 5 5 6 5 5 6 5 5 5 5 6 7 6
7 7 6 6 6 6 6 6 6 7 7 6 5 5 5 5 6 7 6 5 5 4 4 4 5 5 5 5 5 5 6 6 5 6 5 6 6 6 5 5 6 6 8
7 7 6 5 6 6 6 6 6 7 7 7 6 6 5 5 6 7 6 5 5 5 3 4 4 5 6 6 5 5 6 7 7 6 6 6 6 6 5 5 5 6 6
6 6 6 6 6 6 6 6 6 6 7 7 6 6 6 6 6 7 6 5 6 5 5 5 4 6 7 7 6 5 5 5 6 6 6 7 6 6 7 7 7 6 7
6 6 7 7 6 6 6 6 6 6 6 7 6 6 6 6 6 7 7 7 6 6 5 5 5 7 7 7 6 6 6 6 5 5 6 6 6 6 6 5 6 6 6
7 7 7 7 7 6 6 6 6 6 6 6 6 6 7 6 6 7 8 7 6 6 5 5 6 6 6 5 6 6 6 5 6 5 6 6 5 5 5 5 4 4 5
7 7 7 7 7 6 6 6 6 6 6 6 6 7 6 6 6 7 6 6 6 5 5 5 5 5 5 5 5 5 5 5 6 6 6 6 5 6 6 6 6 6 7
7 7 7 7 7 6 5 5 6 5 6 6 5 6 6 6 6 9 8 7 7 7 5 6 7 6 5 5 5 5 5 5 6 6 6 7 7 7 7 7 7 7 8
7 7 7 7 7 6 6 5 7 8 8 8 9 8 6 7 9 9 9 9 9 9 7 7 7 8 8 7 6 6 5 5 6 6 7 7 7 7 7 7 7 7 8
7 7 7 6 6 6 6 5 6 6 8 8 8 8 9 9 9 9 8 8 8 7 7 7 8 7 9 8 8 7 7 5 5 7 7 7 7 7 7 8 7 7 7
7 8 7 7 7 6 5 5 5 6 6 6 7 8 8 9 8 8 9 7 6 6 6 7 7 6 8 8 8 9 8 7 6 5 6 6 7 7 7 7 7 7 7
7 7 7 7 7 7 5 5 5 5 6 6 7 8 8 8 8 8 8 6 7 7 6 7 7 7 7 8 8 8 9 9 9 7 7 5 5 6 7 7 7 10 8
6 8 8 7 7 6 6 6 6 6 7 7 6 7 7 7 6 6 6 6 6 6 6 6 6 6 7 7 8 8 8 9 9 9 8 7 6 6 7 7 7 7 6
5 5 10 7 7 8 7 8 8 8 8 7 7 6 13 9 8 7 7 6 6 6 6 6 6 7 7 8 8 8 9 8 8 9 9 8 7 5 4 5 5 6 6
7 8 7 7 8 8 8 8 8 8 8 8 7 7 11 6 7 7 7 6 6 5 5 6 6 6 7 8 8 9 9 9 9 9 9 9 7 6 6 5 6 6 6
8 8 7 8 8 10 8 8 8 8 8 8 7 7 7 7 7 6 7 7 6 5 4 5 5 7 7 8 9 9 10 11 11 10 10 9 8 7 7 6 6 6 6
8 8 8 8 8 8 9 8 8 10 8 8 7 7 7 7 6 7 7 8 8 6 5 5 6 7 8 9 10 10 11 12 12 11 9 10 8 8 7 6 5 5 5
8 7 8 8 8 8 8 8 8 8 8 8 7 7 6 6 7 7 7 8 8 8 8 7 7 7 8 9 11 11 12 14 13 12 10 8 7 7 7 5 4 3 4
8 7 7 7 8 8 8 8 8 8 8 7 6 6 6 7 8 8 8 9 9 8 8 9 8 8 9 10 11 13 13 14 13 13 12 9 7 5 5 4 4 3 3